TimeCST,TemperatureF,Dew PointF,Humidity,Sea Level PressureIn,VisibilityMPH,Wind Direction,Wind SpeedMPH,Gust SpeedMPH,PrecipitationIn,Events,Conditions,WindDirDegrees,DateUTC
12:15 AM,14.0,6.8,73,29.92,10.0,WNW,3.5,-,N/A,,Unknown,290,2013-01-13 06:15:00
12:35 AM,14.0,8.6,79,29.92,10.0,WSW,4.6,-,N/A,,Unknown,250,2013-01-13 06:35:00
12:55 AM,14.0,8.6,79,29.92,10.0,WSW,4.6,-,N/A,Snow,Light Snow,250,2013-01-13 06:55:00
1:15 AM,14.0,8.6,79,29.92,7.0,WNW,3.5,-,N/A,Snow,Light Snow,300,2013-01-13 07:15:00
1:35 AM,14.0,6.8,73,29.92,10.0,WNW,5.8,-,N/A,,Overcast,300,2013-01-13 07:35:00
1:55 AM,14.0,6.8,73,29.93,10.0,West,3.5,-,N/A,,Overcast,280,2013-01-13 07:55:00
2:15 AM,14.0,6.8,73,29.94,10.0,WNW,6.9,-,N/A,,Overcast,300,2013-01-13 08:15:00
2:35 AM,12.2,6.8,79,29.94,10.0,WNW,4.6,-,N/A,,Overcast,300,2013-01-13 08:35:00
2:55 AM,12.2,8.6,85,29.93,10.0,WNW,5.8,-,N/A,,Overcast,300,2013-01-13 08:55:00
3:15 AM,12.2,8.6,85,29.93,10.0,NW,4.6,-,N/A,,Overcast,310,2013-01-13 09:15:00
3:35 AM,12.2,8.6,85,29.93,10.0,Calm,Calm,-,N/A,Snow,Light Snow,0,2013-01-13 09:35:00
3:55 AM,12.2,8.6,85,29.92,10.0,NW,3.5,-,N/A,Snow,Light Snow,310,2013-01-13 09:55:00
4:15 AM,12.2,8.6,85,29.92,10.0,Calm,Calm,-,N/A,,Overcast,0,2013-01-13 10:15:00
4:35 AM,12.2,8.6,85,29.91,10.0,NW,3.5,-,N/A,,Overcast,320,2013-01-13 10:35:00
4:55 AM,12.2,8.6,85,29.90,10.0,NW,4.6,-,N/A,Snow,Light Snow,320,2013-01-13 10:55:00
5:15 AM,12.2,8.6,85,29.90,7.0,Calm,Calm,-,N/A,Snow,Light Snow,0,2013-01-13 11:15:00
5:35 AM,14.0,8.6,79,29.90,7.0,NW,3.5,-,N/A,Snow,Light Snow,310,2013-01-13 11:35:00
5:55 AM,14.0,8.6,79,29.92,4.0,Calm,Calm,-,N/A,Snow,Light Snow,0,2013-01-13 11:55:00
6:15 AM,14.0,8.6,79,29.93,5.0,Calm,Calm,-,N/A,Snow,Light Snow,0,2013-01-13 12:15:00
6:35 AM,14.0,8.6,79,29.93,5.0,NW,4.6,-,N/A,Snow,Light Snow,320,2013-01-13 12:35:00
6:55 AM,14.0,8.6,79,29.95,10.0,Calm,Calm,-,N/A,,Unknown,0,2013-01-13 12:55:00
7:15 AM,14.0,8.6,79,29.96,10.0,NNW,3.5,-,N/A,,Overcast,330,2013-01-13 13:15:00
7:35 AM,12.2,8.6,85,29.97,7.0,NNW,5.8,-,N/A,Snow,Light Snow,330,2013-01-13 13:35:00
7:55 AM,12.2,8.6,85,29.97,10.0,NW,3.5,-,N/A,,Overcast,320,2013-01-13 13:55:00
8:15 AM,12.2,8.6,85,29.98,5.0,NW,4.6,-,N/A,Snow,Light Snow,320,2013-01-13 14:15:00
8:35 AM,12.2,8.6,85,29.99,10.0,NW,3.5,-,N/A,Snow,Light Snow,310,2013-01-13 14:35:00
8:55 AM,12.2,6.8,79,29.98,10.0,NNW,4.6,-,N/A,,Overcast,330,2013-01-13 14:55:00
9:15 AM,12.2,6.8,79,30.00,7.0,West,4.6,-,N/A,,Overcast,280,2013-01-13 15:15:00
9:35 AM,12.2,6.8,79,29.99,7.0,NW,8.1,-,N/A,,Overcast,310,2013-01-13 15:35:00
9:55 AM,12.2,6.8,79,29.99,7.0,NW,6.9,-,N/A,,Overcast,310,2013-01-13 15:55:00
10:15 AM,12.2,6.8,79,29.99,7.0,NW,5.8,-,N/A,,Overcast,310,2013-01-13 16:15:00
10:35 AM,12.2,6.8,79,29.99,7.0,WNW,5.8,-,N/A,,Overcast,290,2013-01-13 16:35:00
10:55 AM,12.2,5.0,73,29.98,7.0,WNW,4.6,-,N/A,,Overcast,300,2013-01-13 16:55:00
11:15 AM,12.2,5.0,73,29.97,10.0,WNW,4.6,-,N/A,,Overcast,300,2013-01-13 17:15:00
11:35 AM,12.2,5.0,73,29.94,10.0,WNW,5.8,-,N/A,,Unknown,300,2013-01-13 17:35:00
11:55 AM,12.2,3.2,67,29.94,10.0,WNW,5.8,-,N/A,,Unknown,300,2013-01-13 17:55:00
12:15 PM,14.0,3.2,62,29.93,10.0,West,4.6,-,N/A,,Overcast,270,2013-01-13 18:15:00
12:35 PM,14.0,3.2,62,29.92,10.0,WNW,3.5,-,N/A,,Overcast,290,2013-01-13 18:35:00
12:55 PM,14.0,3.2,62,29.92,10.0,WNW,4.6,-,N/A,,Unknown,290,2013-01-13 18:55:00
1:15 PM,14.0,3.2,62,29.92,10.0,WNW,4.6,-,N/A,,Unknown,290,2013-01-13 19:15:00
1:35 PM,14.0,3.2,62,29.92,10.0,WNW,3.5,-,N/A,,Unknown,290,2013-01-13 19:35:00
1:55 PM,14.0,3.2,62,29.94,10.0,West,5.8,-,N/A,Snow,Light Snow,270,2013-01-13 19:55:00
2:15 PM,15.8,3.2,58,29.95,10.0,West,4.6,-,N/A,Snow,Light Snow,280,2013-01-13 20:15:00
2:35 PM,14.0,3.2,62,29.96,10.0,WNW,6.9,-,N/A,,Unknown,290,2013-01-13 20:35:00
2:55 PM,12.2,5.0,73,29.96,5.0,WNW,8.1,-,N/A,Snow,Light Snow,300,2013-01-13 20:55:00
3:15 PM,12.2,5.0,73,29.96,4.0,WNW,4.6,-,N/A,Snow,Light Snow,290,2013-01-13 21:15:00
3:35 PM,12.2,3.2,67,29.96,10.0,WNW,6.9,-,N/A,Snow,Light Snow,300,2013-01-13 21:35:00
3:55 PM,12.2,3.2,67,29.97,10.0,WNW,5.8,-,N/A,Snow,Light Snow,290,2013-01-13 21:55:00
4:15 PM,12.2,3.2,67,29.97,7.0,West,5.8,-,N/A,Snow,Light Snow,270,2013-01-13 22:15:00
4:35 PM,10.4,3.2,73,29.97,5.0,WNW,4.6,-,N/A,Snow,Light Snow,290,2013-01-13 22:35:00
4:55 PM,10.4,5.0,79,29.98,4.0,WNW,8.1,-,N/A,Snow,Light Snow,300,2013-01-13 22:55:00
5:15 PM,10.4,5.0,79,29.99,4.0,West,4.6,-,N/A,Snow,Light Snow,260,2013-01-13 23:15:00
5:35 PM,10.4,5.0,79,29.99,4.0,WNW,4.6,-,N/A,Snow,Light Snow,290,2013-01-13 23:35:00
5:55 PM,10.4,5.0,79,30.00,2.5,WNW,4.6,-,N/A,Snow,Light Snow,300,2013-01-13 23:55:00
6:15 PM,10.4,6.8,85,30.00,2.5,WNW,3.5,-,N/A,Snow,Light Snow,290,2013-01-14 00:15:00
6:35 PM,10.4,5.0,79,30.01,2.5,WNW,5.8,9.2,N/A,Snow,Light Snow,290,2013-01-14 00:35:00
6:55 PM,8.6,3.2,79,30.02,4.0,WNW,5.8,-,N/A,Snow,Light Snow,290,2013-01-14 00:55:00
7:15 PM,8.6,3.2,79,30.02,4.0,West,5.8,-,N/A,Snow,Light Snow,280,2013-01-14 01:15:00
7:35 PM,8.6,3.2,79,30.03,4.0,West,4.6,-,N/A,Snow,Light Snow,260,2013-01-14 01:35:00
7:55 PM,8.6,3.2,79,30.04,4.0,West,4.6,-,N/A,Snow,Light Snow,280,2013-01-14 01:55:00
8:15 PM,8.6,3.2,79,30.05,5.0,West,4.6,-,N/A,Snow,Light Snow,260,2013-01-14 02:15:00
8:35 PM,8.6,3.2,79,30.05,5.0,West,3.5,-,N/A,Snow,Light Snow,260,2013-01-14 02:35:00
8:55 PM,8.6,3.2,79,30.05,5.0,WSW,4.6,-,N/A,Snow,Light Snow,250,2013-01-14 02:55:00
9:15 PM,8.6,3.2,79,30.06,7.0,West,3.5,-,N/A,Snow,Light Snow,260,2013-01-14 03:15:00
9:35 PM,8.6,3.2,79,30.06,10.0,WSW,4.6,-,N/A,Snow,Light Snow,250,2013-01-14 03:35:00
9:55 PM,6.8,3.2,85,30.07,7.0,WSW,5.8,-,N/A,Snow,Light Snow,250,2013-01-14 03:55:00
10:15 PM,8.6,3.2,79,30.08,10.0,WSW,5.8,-,N/A,Snow,Light Snow,250,2013-01-14 04:15:00
10:35 PM,8.6,3.2,79,30.09,10.0,WSW,4.6,-,N/A,,Unknown,250,2013-01-14 04:35:00
10:55 PM,8.6,3.2,79,30.10,10.0,West,4.6,-,N/A,,Unknown,280,2013-01-14 04:55:00
11:35 PM,6.8,3.2,85,30.11,10.0,West,4.6,-,N/A,,Mostly Cloudy,270,2013-01-14 05:35:00
11:55 PM,6.8,3.2,85,30.12,10.0,WSW,4.6,-,N/A,,Unknown,250,2013-01-14 05:55:00